STARLINK-3882, 52475

Orbit data source: Space-Track

STARLINK-3882, 52475 is a payload satellite owned by SpaceX/Seattle (US) in LEO that was launched on Fri, 06 May 2022 UTC via an FALCON 9 launch vehicle from the Air Force Eastern Test Range (AFETR). Payload-class satellites include a variety of spacecraft equipped with specific instruments for various scientific and technological missions. These include communications satellites like Starlink; space stations such as the ISS; scientific satellites like the Hubble; Earth observation satellites from companies like Planet Labs, Umbra, and HawkEye 360; GPS; miniature CubeSats for education and research; and military/defense satellites.

Loading next visibility...
Identifier
52475, 2022-049AA
Orbit
LEO
Country
Flag of USUS
Related business
Manufacturer
SpaceX/Seattle
Mission
Operational Commercial Communications
Bus & Motor
STARLINK, Unknown motor
Mass
297 kg wet, ~220 kg dry
Launch date (UTC)
2022-05-06 (4 years ago)
Launch vehicle
FALCON 9
Launch site
Air Force Eastern Test Range (AFETR)
Object type
Payload
Rocket body
Debris
Shape & HBR
Box + 1 Pan, 10.1 m
Radar Cross Section
13.562 m², Large (>1 m²)

Expand to show TLE details & history
Last TLE update: 17 hours ago

TLE from 17 hours ago
0 STARLINK-3882
1 52475U 22049AA  25346.68812537  .00004879  00000-0  32423-3 0  9995
2 52475  53.2194  89.9068 0001845 113.5660 246.5527 15.08860996199113
Epoch: 2025-12-12T16:30Z
TLE epoch observation values (Epoch: 2025-12-12T16:30:54.031Z)
Latitude
0.00002°
Longitude
120.55553°
Altitude
541.085 km
Speed
7.593 km/s
True Right ascension
05h 59m 37s
True Declination
0° 00' 00"
Sunlit
Object was in full shadow at epoch
Visualization orbit readout
Latitude
Unknown
Longitude
Unknown
Altitude
Unknown
Speed
Unknown
Apparent Right ascension
Unknown
Apparent Declination
Unknown
Sunlit
N/A
Visualization observer readout
Local Sidereal Time
07:30:35
Azimuth
Unknown
Elevation
Unknown
Doppler factor
Unknown
Orbital elements
Apogee altitude
541.2 km
Perigee altitude
538.647 km
Semi-major axis
6,918.061 km
Eccentricity
0.00018
Inclination
53.2194°
RAAN
89.9068°
Arg. of periapsis
113.566°
True anomaly
246.53331°
Mean anomaly
246.5527°
Eccentric anomaly
246.543°
Mean motion
3.77196 °/min
Orbital period
95.44 mins
BSTAR
0.00032423
Loading maneuver chart data...
Computing Atmospheric mass density...
Loading historical data...
Loading historical data...
Loading historical data...
Loading historical data...
Loading historical data...
Loading historical data...
Loading historical data...

Documentation

Showing up to 5 results
|